Location: Unspecified
(0.0000°N, 0.0000°E)
Time: 21:16:59
(UTC+02:00)

Cosmos 1300 - Visible Passes

Search period start: 24 April 2014 00:00
Search period end: 04 May 2014 00:00
Orbit: 533 x 534 km, 82.5° (Epoch: 24 April)

Date Brightness Start Highest point End Pass type
(mag) Time Alt. Az. Time Alt. Az. Time Alt. Az.
24 Apr 4.1 20:26:29 10° SSW 20:30:14 44° W 20:33:58 10° NNW visible
25 Apr 4.0 20:17:05 10° SSW 20:20:52 47° W 20:24:38 10° NNW visible
01 May 2.7 07:25:12 10° N 07:29:04 67° W 07:32:58 10° S visible
02 May 2.7 07:15:45 10° N 07:19:38 72° W 07:23:32 10° S visible
03 May 2.6 07:06:17 10° N 07:10:10 77° W 07:14:05 10° S visible
